Find Starlink 4482

NORAD ID: 53530 Int'l Des: 2022-101 Owner: SPXS Country: US Constellation: starlink operational
LEOCIRCULAR

Live Position

Loading 3D Globe...

About Starlink 4482

Description loading...

Upcoming Passes

Passes for default location (London). Set your location on the main map for personalized predictions.

Altitude History

Loading altitude history...

Two-Line Element Set

1 53530U 22101D 26123.43499485 .00000394 00000-0 42831-4 0 9990
2 53530 53.2161 188.5778 0001005 88.8567 271.2541 15.08834657204429
Epoch: May 3, 2026 • Age: 14 hours

Current Status

Altitude 546.6 km
Velocity 7.59 km/s
Sub-Earth Point -22.73°S, 63.46°W
Launch Date Aug 19, 2022
Age 3.7 years
Type internet

Technical Details

Classification Payload
Mass 300.00 kg
Dry Mass 290.00 kg
Total Mass 300.00 kg
Length 0.20 m
Diameter 2.80 m
Span 9.00 m
Shape Box + pan
Manufacturer SPXS
Bus Type Starlink
Phase Status In Orbit
Owner/State SPXS/US

Most Searched